Find Starlink 3851

NORAD ID: 52344 Int'l Des: 2022-045 Owner: SPXS Country: US Constellation: starlink operational
LEOCIRCULAR

現在のビュー

3D地球を読み込み中...

About Starlink 3851

Starlink 3851 (NORAD 52344) is a starlink constellation satellite (v1.5) launched Apr 29, 2022 by SPXS of US. It operates in LEO, CIRCULAR orbit with a mass of 297.00 kg.

次回通過

Passes for default location (London). Set your location on the main map for personalized predictions.

高度履歴

Loading altitude history...

軌道要素

1 52344U 22045P 26209.16668980 .00072573 00000-0 42420-2 0 9992
2 52344 53.1591 288.2123 0002040 80.0103 52.2203 15.11239974 5784
Epoch: Jul 28, 2026 • Age: 14 hours

現在のステータス

高度 531.7 km
遠地点 / 近地点 N/A
速度 7.60 km/s
衛星直下点 12.77°N, 82.34°E
打ち上げ日 Apr 29, 2022
運用期間 4.2 years
タイプ internet

技術仕様

分類 Payload
質量 297.00 kg
乾燥質量 275.00 kg
総質量 297.00 kg
長さ 0.20 m
直径 2.80 m
スパン 9.00 m
形状 Box + pan
製造者 SPXS
バスタイプ Starlink
フェーズステータス In Orbit
所有者/国 SPXS/US

Most Searched